Location: Guilderland
(42.7045°N, 73.9115°W)
Time: 21:59:27
(UTC+00:00)

Okean-O - Pass Details

Date: 24 January 2020
Orbit: 639 x 640 km, 98.2° (Epoch: 20 February)

Event Time Altitude Azimuth Distance (km) Brightness Sun altitude
Rises 23:30:13 0° 188° (S) 2,930 6.3 -16.9°
Reaches altitude 10° 23:32:36 10° 198° (SSW) 2,026 5.6 -17.3°
Maximum altitude 23:36:34 33° 263° (W) 1,084 4.5 -18.0°
Drops below altitude 10° 23:40:36 10° 328° (NNW) 2,041 5.5 -18.8°
Sets 23:43:00 0° 338° (NNW) 2,955 6.2 -19.2°
